Location: Asheville, NC
(35.6000°N, 82.5500°W)
Time: 17:02:44
(UTC-04:00)

Vanguard 2 - Pass Details

Date: 13 March 2018
Orbit: 553 x 2939 km, 32.9° (Epoch: 17 June)

Event Time Altitude Azimuth Distance (km) Brightness Sun altitude
Rises 16:17:13 0° 278° (W) 6,642 12.8 36.9°
Reaches altitude 10° 16:21:31 10° 277° (W) 5,725 12.7 36.2°
Maximum altitude 16:39:24 70° 199° (SSW) 2,863 11.3 33.2°
Drops below altitude 10° 16:53:26 10° 119° (ESE) 4,625 11.3 30.8°
Sets 16:56:31 0° 117° (ESE) 5,357 11.5 30.2°
